Location: Cactus School
(34.5700°N, 118.0931°W)
Time: 01:08:10
(UTC-07:00)

PRISM - Visible Passes

Search period start: 21 May 2024 00:00
Search period end: 31 May 2024 00:00
Orbit: 504 x 519 km, 98.2° (Epoch: 20 May)

Date Brightness Start Highest point End Pass type
(mag) Time Alt. Az. Time Alt. Az. Time Alt. Az.
21 May ? 20:59:31 13° SSE 21:02:49 90° N 21:06:33 10° NNW visible
22 May ? 20:43:02 10° SSE 20:46:33 51° ENE 20:50:11 10° N visible
23 May ? 20:27:01 10° SE 20:30:17 30° ENE 20:33:34 10° N visible
23 May ? 22:02:21 10° SW 22:04:12 13° W 22:06:03 10° WNW visible
24 May ? 21:44:46 10° SSW 21:47:40 22° W 21:50:36 10° NW visible
25 May ? 21:28:01 12° SSW 21:31:07 36° W 21:34:36 10° NNW visible
26 May ? 21:11:15 13° S 21:14:32 65° WSW 21:18:15 10° NNW visible
27 May ? 20:54:25 11° SSE 20:57:55 71° ENE 21:01:39 10° N visible
28 May ? 20:37:48 10° SE 20:41:17 40° ENE 20:44:47 10° N visible
29 May ? 20:21:36 10° SE 20:24:37 24° ENE 20:27:39 10° NNE visible
29 May ? 21:55:55 10° SW 21:58:24 17° W 22:00:54 10° NW visible
30 May ? 21:38:22 11° SSW 21:41:29 28° W 21:44:44 10° NW visible
